Weather History for K4A9 - February, 2013

Change the Weather History Date:

Tuesday, February 19, 2013

  Actual Average (KRMG) Record (KRMG)
Temperature  
Mean Temperature 42 °F 45 °F  
Max Temperature 51 °F 57 °F 70 °F (2011)
Min Temperature 32 °F 34 °F 11 °F (2015)
Degree Days  
Heating Degree Days 24 20  
Month to date heating degree days 412  
Since 1 July heating degree days 2454  
Moisture  
Dew Point 29 °F    
Average Humidity 61    
Maximum Humidity 93    
Minimum Humidity 24    
Precipitation  
Precipitation 0.34 in 0.18 in 0.65 in (2012)
Month to date precipitation 3.13  
Year to date precipitation 7.95  
Sea Level Pressure  
Sea Level Pressure 30.07 in    
Wind  
Wind Speed 6 mph (WSW)    
Max Wind Speed 20 mph    
Max Gust Speed 28 mph    
Visibility 9 miles    
Events Rain    
T = Trace of Precipitation, MM = Missing Value Source: NWS Daily Summary

Daily Weather History Graph

Daily Weather History Graph

Search for Another Location

Airport or City:

Trip Planner

Search our weather history database for the weather conditions in past years. The results will help you decide how hot, cold, wet, or windy it might be!

Date:

Astronomy

Feb. 19, 2013 Rise Set
Actual Time 6:23 AM CST 5:30 PM CST
Civil Twilight 5:58 AM CST 5:55 PM CST
Nautical Twilight 5:28 AM CST 6:25 PM CST
Astronomical Twilight 4:59 AM CST 6:54 PM CST
Moon 12:08 PM CST (2/19) 1:47 AM CST (2/19)
Length of Visible Light 11h 57m
Length of Day
11h 06m
Waxing Gibbous, 67% of the Moon is Illuminated
Feb 19
Waxing Gibbous
Feb 25
Full
Mar 4
Last Quarter
Mar 11
New
Mar 19
First Quarter

Hourly Weather History & Observations

Time (CST) Temp. Windchill Dew Point Humidity Pressure Visibility Wind Dir Wind Speed Gust Speed Precip Events Conditions
12:15 AM 50.0 °F - 24.8 °F 37% 29.96 in 10.0 mi South 8.1 mph 16.1 mph N/A   Drizzle
12:35 AM 46.4 °F 45.2 °F 30.2 °F 53% 29.99 in 10.0 mi SSW 3.5 mph - N/A Rain Rain
12:55 AM 42.8 °F - 33.8 °F 70% 30.01 in 5.0 mi Calm Calm - 0.04 in Rain Rain
1:15 AM 41.0 °F - 37.4 °F 87% 29.99 in 2.5 mi Calm Calm - 0.05 in   Overcast
1:35 AM 41.0 °F - 37.4 °F 87% 30.03 in 2.5 mi Calm Calm - 0.13 in   Overcast
1:55 AM 41.0 °F - 35.6 °F 81% 30.05 in 7.0 mi Calm Calm - 0.16 in Rain Light Rain
2:15 AM 41.0 °F - 37.4 °F 87% 30.05 in 4.0 mi Calm Calm - 0.03 in Rain Rain
2:35 AM 41.0 °F 39.0 °F 37.4 °F 87% 30.05 in 7.0 mi SE 3.5 mph - 0.06 in Rain Light Rain
2:55 AM 41.0 °F 37.1 °F 37.4 °F 87% 30.02 in 7.0 mi SE 5.8 mph - 0.11 in Rain Light Rain
3:15 AM 42.8 °F 38.6 °F 37.4 °F 81% 29.99 in 10.0 mi South 6.9 mph - N/A Rain Light Rain
3:35 AM 42.8 °F 38.6 °F 37.4 °F 81% 29.97 in 10.0 mi South 6.9 mph - N/A Rain Light Rain
3:55 AM 44.6 °F 42.2 °F 37.4 °F 76% 29.97 in 10.0 mi South 4.6 mph - 0.01 in Rain Light Rain
4:15 AM 44.6 °F 40.2 °F 39.2 °F 81% 29.96 in 10.0 mi South 8.1 mph - 0.01 in Rain Light Rain
4:35 AM 44.6 °F 42.2 °F 39.2 °F 81% 29.95 in 10.0 mi SSE 4.6 mph - 0.01 in Rain Rain
4:55 AM 42.8 °F 39.3 °F 37.4 °F 81% 29.96 in 10.0 mi South 5.8 mph - 0.01 in   Overcast
5:15 AM 42.8 °F 38.6 °F 37.4 °F 81% 29.97 in 10.0 mi South 6.9 mph - N/A   Mostly Cloudy
5:35 AM 42.8 °F 41.1 °F 37.4 °F 81% 29.96 in 10.0 mi SSE 3.5 mph - N/A   Mostly Cloudy
5:55 AM 42.8 °F 40.1 °F 37.4 °F 81% 29.98 in 10.0 mi South 4.6 mph - N/A   Overcast
6:35 AM 42.8 °F - 39.2 °F 87% 29.99 in 7.0 mi Calm Calm - N/A Rain Rain
6:55 AM 42.8 °F - 39.2 °F 87% 30.00 in 7.0 mi Calm Calm - 0.01 in   Overcast
7:15 AM 42.8 °F - 39.2 °F 87% 30.01 in 1.5 mi Calm Calm - N/A   Overcast
7:35 AM 42.8 °F - 41.0 °F 93% 30.03 in 1.5 mi Calm Calm - N/A   Overcast
7:55 AM 42.8 °F - 41.0 °F 93% 30.04 in 2.5 mi Calm Calm - N/A   Overcast
8:15 AM 42.8 °F - 41.0 °F 93% 30.05 in 5.0 mi Calm Calm - N/A   Overcast
8:35 AM 42.8 °F 41.1 °F 41.0 °F 93% 30.05 in 7.0 mi SSW 3.5 mph - N/A   Overcast
8:55 AM 44.6 °F 41.4 °F 41.0 °F 87% 30.06 in 10.0 mi SW 5.8 mph - N/A   Overcast
9:15 AM 44.6 °F 40.2 °F 42.8 °F 93% 30.06 in 7.0 mi West 8.1 mph - N/A   Overcast
9:35 AM 44.6 °F 37.4 °F 41.0 °F 87% 30.06 in 10.0 mi West 16.1 mph 19.6 mph N/A   Overcast
9:55 AM 44.6 °F 38.8 °F 39.2 °F 81% 30.08 in 10.0 mi West 11.5 mph 18.4 mph N/A   Mostly Cloudy
10:15 AM 46.4 °F 41.5 °F 39.2 °F 76% 30.08 in 10.0 mi West 10.4 mph - N/A   Scattered Clouds
10:35 AM 46.4 °F 41.1 °F 35.6 °F 66% 30.09 in 10.0 mi WNW 11.5 mph - N/A   Scattered Clouds
10:55 AM 48.2 °F - 33.8 °F 58% 30.09 in 10.0 mi WNW 8.1 mph 17.3 mph N/A   Scattered Clouds
11:15 AM 48.2 °F - 35.6 °F 62% 30.09 in 10.0 mi WNW 10.4 mph 18.4 mph N/A   Scattered Clouds
11:35 AM 50.0 °F - 32.0 °F 50% 30.08 in 10.0 mi West 11.5 mph 16.1 mph N/A   Scattered Clouds
11:55 AM 50.0 °F - 32.0 °F 50% 30.08 in 10.0 mi West 11.5 mph - N/A   Clear
12:35 PM 50.0 °F - 28.4 °F 43% 30.07 in 10.0 mi West 15.0 mph 23.0 mph N/A   Clear
12:55 PM 51.8 °F - 28.4 °F 41% 30.07 in 10.0 mi WNW 11.5 mph 20.7 mph N/A   Clear
1:15 PM 51.8 °F - 28.4 °F 41% 30.06 in 10.0 mi WNW 15.0 mph 19.6 mph N/A   Clear
1:35 PM 51.8 °F - 28.4 °F 41% 30.05 in 10.0 mi WNW 10.4 mph 21.9 mph N/A   Clear
1:55 PM 51.8 °F - 26.6 °F 38% 30.06 in 10.0 mi West 16.1 mph 27.6 mph N/A   Clear
2:15 PM 51.8 °F - 21.2 °F 30% 30.07 in 10.0 mi West 19.6 mph 26.5 mph N/A   Clear
2:35 PM 51.8 °F - 19.4 °F 28% 30.07 in 10.0 mi West 18.4 mph 24.2 mph N/A   Clear
2:55 PM 51.8 °F - 19.4 °F 28% 30.08 in 10.0 mi West 11.5 mph 23.0 mph N/A   Clear
3:15 PM 51.8 °F - 17.6 °F 26% 30.08 in 10.0 mi West 13.8 mph 21.9 mph N/A   Clear
3:35 PM 51.8 °F - 17.6 °F 26% 30.08 in 10.0 mi West 8.1 mph - N/A   Clear
3:55 PM 51.8 °F - 17.6 °F 26% 30.09 in 10.0 mi West 13.8 mph 23.0 mph N/A   Clear
4:15 PM 50.0 °F - 14.0 °F 24% 30.10 in 10.0 mi West 10.4 mph 20.7 mph N/A   Clear
4:35 PM 50.0 °F - 14.0 °F 24% 30.10 in 10.0 mi WNW 10.4 mph 23.0 mph N/A   Clear
4:55 PM 48.2 °F - 14.0 °F 25% 30.11 in 10.0 mi West 11.5 mph 20.7 mph N/A   Clear
5:15 PM 46.4 °F 41.9 °F 14.0 °F 27% 30.12 in 10.0 mi West 9.2 mph - N/A   Clear
5:35 PM 46.4 °F 42.4 °F 12.2 °F 25% 30.13 in 10.0 mi WNW 8.1 mph - N/A   Clear
6:35 PM 42.8 °F 38.0 °F 10.4 °F 27% 30.14 in 10.0 mi NW 8.1 mph - N/A   Clear
6:55 PM 42.8 °F 39.3 °F 10.4 °F 27% 30.15 in 10.0 mi WNW 5.8 mph - N/A   Clear
7:15 PM 42.8 °F 41.1 °F 10.4 °F 27% 30.15 in 10.0 mi West 3.5 mph - N/A   Clear
7:55 PM 35.6 °F - 19.4 °F 52% 30.16 in 10.0 mi Calm Calm - N/A   Clear
8:15 PM 33.8 °F - 19.4 °F 56% 30.16 in 10.0 mi Calm Calm - N/A   Clear
8:35 PM 33.8 °F - 19.4 °F 56% 30.16 in 10.0 mi Calm Calm - N/A   Clear
8:55 PM 33.8 °F - 21.2 °F 60% 30.17 in 10.0 mi Calm Calm - N/A   Clear
9:15 PM 32.0 °F - 21.2 °F 64% 30.20 in 10.0 mi Calm Calm - N/A   Clear
9:55 PM 32.0 °F - 23.0 °F 69% 30.21 in 10.0 mi Calm Calm - N/A   Clear
10:15 PM 32.0 °F - 21.2 °F 64% 30.21 in 10.0 mi Calm Calm - N/A   Clear
10:35 PM 32.0 °F - 21.2 °F 64% 30.20 in 10.0 mi Calm Calm - N/A   Clear
10:55 PM 35.6 °F - 17.6 °F 48% 30.21 in 10.0 mi Calm Calm - N/A   Clear
11:15 PM 32.0 °F - 19.4 °F 60% 30.22 in 10.0 mi Calm Calm - N/A   Clear
11:35 PM 32.0 °F - 19.4 °F 60% 30.21 in 10.0 mi Calm Calm - N/A   Clear